Погода в Губино

Россия / Томская область     56°35′08″N   84°37′42″E
темп.,
°C
ветер,
м/с
пор.,
м/с
влажн.,
%
обл.,
%
осадки,
мм/ч
давл.,
гПа
погр.,
м
19 мая, ср
ср1901:00+9св2686100 0.1 1009309
04:00+9ссв2685100 0.1 1008242
07:00+8св386743 0.1 1009332
10:00+12ссв55375 0.0 10091051
13:00+13с663390 0.0 10102028
16:00+12с772863 0.0 10102519
19:00+10с583021 0.0 10122554
22:00+5ссз38455 0.0 1013205
20 мая, чт
чт2001:00+3ссз245824 0.0 101483
04:00+2ссз3860100 0.0 1014263
07:00+3с495617 0.0 1015514
10:00+6с5635100 0.0 10152599
13:00+7с5631100 0.1 10162743
16:00+8с4728100 0.0 10173014
19:00+8с573541 0.0 10182120
22:00+4сз36544 0.0 102095
21 мая, пт
пт2101:00+2сз38610 0.0 1020138
04:000сз25655 0.0 102294
07:00+3ссз245498 0.0 1023150
10:00+10сз2334100 0.0 10241002
13:00+13з3325100 0.0 10242035
16:00+14з4424100 0.0 10232311
19:00+13зюз2427100 0.0 10232232
22:00+8ююз224385 0.0 102424
22 мая, сб
сб2201:00+6юз255580 0.0 102582
04:00+6юз31054100 0.0 1025221
07:00+8юз31050100 0.0 1025341
10:00+11юз3647100 0.0 1026488
13:00+11юз5950100 0.0 10251370
16:00+11юз4944100 0.0 10241014
19:00+11юз3852100 0.0 1024450
22:00+11юз3860100 0.0 1024337
23 мая, вс
вс2301:00+10юз376638 0.0 1024246
04:00+7юз387656 0.0 1024159
07:00+9юз39598 0.0 1024273
10:00+17юз573915 0.0 1022662
13:00+22юз57365 0.0 10211336
16:00+24юз57345 0.0 10201851
19:00+23юз583987 0.0 10181696
22:00+17ююз395994 0.0 1018236